Location: Unspecified
(0.0000°N, 0.0000°E)
Time: 01:20:23
(UTC+00:00)

Tiangong 1 - Visible Passes

Search period start: 24 September 2017 00:00
Search period end: 04 October 2017 00:00
Orbit: 303 x 328 km, 42.8° (Epoch: 23 September)

Date Brightness Start Highest point End Pass type
(mag) Time Alt. Az. Time Alt. Az. Time Alt. Az.
25 Sep 3.4 18:53:21 10° SSE 18:53:26 10° SSE 18:53:26 10° SSE visible
26 Sep 1.9 19:05:19 10° SW 19:07:05 34° SSW 19:07:05 34° SSW visible
27 Sep 3.0 19:18:50 10° WSW 19:20:42 23° WNW 19:20:42 23° WNW visible
29 Sep 3.7 05:16:34 10° NNE 05:17:59 13° NE 05:19:25 10° ENE visible
29 Sep 2.0 18:09:31 10° WSW 18:12:05 39° NW 18:14:37 10° NNE visible
02 Oct 2.7 04:22:07 29° E 04:22:07 29° E 04:23:56 10° ESE visible
03 Oct 2.4 04:35:11 25° S 04:35:11 25° S 04:36:37 10° SSE visible
